TimeMST,TemperatureF,Dew PointF,Humidity,Sea Level PressureIn,VisibilityMPH,Wind Direction,Wind SpeedMPH,Gust SpeedMPH,PrecipitationIn,Events,Conditions,WindDirDegrees,DateUTC
12:55 AM,43.7,13.6,30,30.06,10.0,NNE,6.9,-,N/A,,Clear,20,2012-11-06 07:55:00
1:55 AM,43.9,13.8,30,30.05,10.0,North,5.8,-,N/A,,Clear,360,2012-11-06 08:55:00
2:55 AM,43.3,14.0,31,30.05,10.0,North,8.1,-,N/A,,Clear,10,2012-11-06 09:55:00
3:55 AM,41.9,14.4,33,30.06,10.0,NE,3.5,-,N/A,,Clear,40,2012-11-06 10:55:00
4:55 AM,36.7,12.4,37,30.10,10.0,WNW,4.6,-,N/A,,Clear,300,2012-11-06 11:55:00
5:55 AM,36.7,13.1,38,30.11,10.0,Calm,Calm,-,N/A,,Clear,0,2012-11-06 12:55:00
6:55 AM,38.8,15.3,38,30.14,10.0,South,3.5,-,N/A,,Clear,180,2012-11-06 13:55:00
7:55 AM,46.8,17.6,31,30.17,10.0,SSE,3.5,-,N/A,,Clear,160,2012-11-06 14:55:00
8:55 AM,55.2,17.8,23,30.16,10.0,SW,4.6,-,N/A,,Clear,230,2012-11-06 15:55:00
9:55 AM,64.6,19.4,18,30.12,10.0,Variable,3.5,-,N/A,,Clear,0,2012-11-06 16:55:00
10:55 AM,68.7,19.2,15,30.10,10.0,Calm,Calm,-,N/A,,Clear,0,2012-11-06 17:55:00
11:55 AM,72.0,20.7,14,30.09,10.0,Calm,Calm,-,N/A,,Clear,0,2012-11-06 18:55:00
12:55 PM,74.1,21.0,14,30.04,10.0,WNW,3.5,-,N/A,,Clear,300,2012-11-06 19:55:00
1:55 PM,75.7,23.0,14,30.02,10.0,Variable,3.5,-,N/A,,Clear,0,2012-11-06 20:55:00
2:55 PM,76.5,24.4,15,29.99,10.0,Calm,Calm,-,N/A,,Clear,0,2012-11-06 21:55:00
3:55 PM,77.0,23.0,13,30.00,10.0,Calm,Calm,-,N/A,,Clear,0,2012-11-06 22:55:00
4:55 PM,75.0,24.8,15,30.02,10.0,Calm,Calm,-,N/A,,Clear,0,2012-11-06 23:55:00
5:55 PM,66.2,23.2,20,30.05,10.0,Calm,Calm,-,N/A,,Clear,0,2012-11-07 00:55:00
6:55 PM,58.3,19.8,22,30.09,10.0,ENE,5.8,-,N/A,,Clear,70,2012-11-07 01:55:00
7:55 PM,53.8,19.0,26,30.08,10.0,ENE,5.8,-,N/A,,Clear,60,2012-11-07 02:55:00
8:55 PM,51.4,18.7,28,30.07,10.0,ENE,6.9,-,N/A,,Clear,70,2012-11-07 03:55:00
9:55 PM,49.5,17.8,29,30.05,10.0,ENE,10.4,-,N/A,,Clear,60,2012-11-07 04:55:00
10:55 PM,48.9,18.3,30,30.04,10.0,ENE,8.1,-,N/A,,Clear,60,2012-11-07 05:55:00
11:55 PM,46.0,18.0,33,30.05,10.0,NW,3.5,-,N/A,,Clear,310,2012-11-07 06:55:00